Location: Paderno d�Adda
(45.6667°N, 9.4333°E)
Time: 13:03:12
(UTC+00:00)

Cosmos 2034 Rocket - Pass Details

Date: 19 September 2020
Orbit: 957 x 1002 km, 82.9° (Epoch: 29 October)

Event Time Altitude Azimuth Distance (km) Brightness Sun altitude
Rises 19:19:36 0° 191° (S) 3,711 6.9 -20.2°
Reaches altitude 10° 19:22:07 10° 193° (SSW) 2,766 6.2 -20.6°
Maximum altitude 19:28:29 77° 279° (W) 1,030 4.2 -21.7°
Drops below altitude 10° 19:34:52 10° 6° (N) 2,769 6.6 -22.7°
Sets 19:37:25 0° 8° (N) 3,717 7.3 -23.1°
